Regional Weather Roundup
Issued by NWS

Home | Current Version | Previous Version | Text Only | Print | Product List | Glossary On
Versions: 1 2 3 4 5 6 7 8 9 10 11 12 13 14 15 16 17 18 19 20 21 22 23 24 25 26 27 28
000
ASUS45 KCYS 310910
RWRWY

WYOMING REGIONAL WEATHER ROUNDUP
NATIONAL WEATHER SERVICE CHEYENNE WY
300 AM MDT FRI OCT 31 2014

NOTE:  "FAIR" INDICATES FEW OR NO CLOUDS BELOW 12,000 FEET
WITH NO SIGNIFICANT WEATHER AND/OR OBSTRUCTIONS TO VISIBILITY.

WYZ001-311000-
YELLOWSTONE NATIONAL PARK

CITY           SKY/WX    TMP DP  RH WIND       PRES   REMARKS
LK YELLOWSTONE   N/A     28  26  92 NW3       30.25
W YELLOWSTONE  NOT AVBL

$$
WYZ002>013-054>058-071-098>099-311000-
NORTHERN WYOMING

CITY           SKY/WX    TMP DP  RH WIND       PRES   REMARKS
JACKSON        PTCLDY    28  27  93 N7        30.21F WCI  21
CODY           MOCLDY    39  27  60 S3        30.14
GREYBULL       MOCLDY    37  22  54 E5        30.14F WCI  33
WORLAND        MOCLDY    36  23  59 S7        30.14F WCI  30
SHERIDAN       PTCLDY    43  28  55 SE8       30.15F
BUFFALO        PTCLDY    40  24  53 SE22      30.19F WCI  30
GILLETTE       CLEAR     35  29  78 S23       30.27F WCI  23
HULETT         FAIR      30  28  93 CALM      30.33  FOG
NEWCASTLE      CLOUDY    30  30 100 S5        30.39  WCI  25

$$
WYZ014>020-022>026-101>103-311000-
CENTRAL WYOMING

CITY           SKY/WX    TMP DP  RH WIND       PRES   REMARKS
BIG PINEY      MOCLDY    27  20  75 E5        30.26F WCI  22
PINEDALE       MOSUNNY   27  25  93 W5        30.27  WCI  21
DUBOIS         FAIR      32  25  74 NW14      30.24F WCI  22
LANDER         MOCLDY    38  27  64 SE3       30.21F
RIVERTON       CLOUDY    37  22  54 W7        30.21F WCI  32
CASPER         PTCLDY    25  19  78 N3        30.25F
DOUGLAS        PTCLDY    35  30  82 SE14      30.32F WCI  26

$$
WYZ021-027>030-104>119-311000-
SOUTHERN WYOMING

CITY           SKY/WX    TMP DP  RH WIND       PRES   REMARKS
EVANSTON       MOCLDY    45  21  38 S3        30.20F
KEMMERER       PTSUNNY   39  27  60 N12       30.23F WCI  32
FORT BRIDGER   FAIR      39  27  60 W6        30.24F
ROCK SPRINGS   PTCLDY    41  25  53 SE8       30.22F
DIXON          FAIR      41  27  57 E8        30.28F
RAWLINS        MOCLDY    30  20  66 CALM      30.28F
SARATOGA       FAIR      41  25  52 SE16      30.28F
LARAMIE        CLEAR     36  24  62 SE22      30.32F WCI  25
CHEYENNE       PTCLDY    35  28  75 S13       30.38F WCI  26
TORRINGTON     PTCLDY    30  28  92 E7        30.40F WCI  23
PINE BLUFFS    FAIR      32  30  93 SE6       30.41F WCI  26

$$



USA.gov is the U.S. government's official web portal to all federal, state and local government web resources and services.